Location: Firdgum
(53.2488°N, 5.5615°E)
Time: 01:26:07
(UTC+00:00)

Feng Yun 1-1 Rocket - Pass Details

Date: 08 December 2019
Orbit: 830 x 933 km, 99.2° (Epoch: 28 January)

Event Time Altitude Azimuth Distance (km) Brightness Sun altitude
Rises 06:48:07 0° 14° (NNE) 3,421 7.2 -7.1°
Reaches altitude 10° 06:50:28 10° 12° (NNE) 2,493 6.5 -6.8°
Maximum altitude 06:55:56 63° 293° (WNW) 966 4.3 -6.1°
Drops below altitude 10° 07:01:30 10° 213° (SSW) 2,542 6.7 -5.4°
Sets 07:03:56 0° 210° (SSW) 3,493 7.4 -5.0°
